,,PressureMeas_1m,,PRMeasQMR101_1,,RHStat155_1m_1,,SRMeasQMS101R_1m,,TAStat155_1m_1,,GenWind_1,,GenWind_1,
2018-08-10, 07:00:06,VALID,919.513,VALID,0.0,VALID,96.483,VALID,48.716,VALID,17.793,VALID,115.0,VALID,0.0,
2018-08-10, 07:01:06,VALID,919.513,VALID,0.0,VALID,96.292,VALID,49.504,VALID,17.82,VALID,119.0,VALID,0.0,
2018-08-10, 07:02:06,VALID,919.498,VALID,0.0,VALID,96.229,VALID,49.915,VALID,17.856,VALID,125.0,VALID,0.0,
2018-08-10, 07:03:06,VALID,919.471,VALID,0.0,VALID,96.118,VALID,49.992,VALID,17.908,VALID,130.0,VALID,0.0,
2018-08-10, 07:04:06,VALID,919.45,VALID,0.0,VALID,95.985,VALID,49.854,VALID,17.952,VALID,135.0,VALID,0.0,
2018-08-10, 07:05:06,VALID,919.427,VALID,0.0,VALID,95.806,VALID,49.574,VALID,17.995,VALID,137.0,VALID,0.0,
2018-08-10, 07:06:06,VALID,919.398,VALID,0.0,VALID,95.688,VALID,49.347,VALID,18.04,VALID,133.0,VALID,0.0,
2018-08-10, 07:07:06,VALID,919.382,VALID,0.0,VALID,95.45,VALID,49.321,VALID,18.065,VALID,130.0,VALID,0.0,
2018-08-10, 07:08:06,VALID,919.366,VALID,0.0,VALID,95.18,VALID,49.487,VALID,18.083,VALID,131.0,VALID,0.0,
2018-08-10, 07:09:06,VALID,919.387,VALID,0.0,VALID,95.124,VALID,49.764,VALID,18.101,VALID,131.0,VALID,0.0,
2018-08-10, 07:10:06,VALID,919.398,VALID,0.0,VALID,95.216,VALID,50.264,VALID,18.131,VALID,149.0,VALID,0.0,
2018-08-10, 07:11:06,VALID,919.427,VALID,0.0,VALID,95.098,VALID,50.94,VALID,18.152,VALID,207.0,VALID,0.0,
2018-08-10, 07:12:06,VALID,919.452,VALID,0.0,VALID,94.988,VALID,51.817,VALID,18.15,VALID,209.0,VALID,0.0,
2018-08-10, 07:13:06,VALID,919.473,VALID,0.0,VALID,95.082,VALID,52.851,VALID,18.159,VALID,185.0,VALID,0.0,
2018-08-10, 07:14:06,VALID,919.501,VALID,0.0,VALID,94.999,VALID,54.023,VALID,18.162,VALID,167.0,VALID,0.0,
2018-08-10, 07:15:06,VALID,919.535,VALID,0.0,VALID,94.917,VALID,55.313,VALID,18.162,VALID,143.0,VALID,0.0,
2018-08-10, 07:16:06,VALID,919.558,VALID,0.0,VALID,94.713,VALID,56.677,VALID,18.155,VALID,124.0,VALID,0.0,
2018-08-10, 07:17:06,VALID,919.563,VALID,0.0,VALID,94.199,VALID,58.179,VALID,18.056,VALID,77.0,VALID,0.0,
2018-08-10, 07:18:06,VALID,919.58,VALID,0.0,VALID,94.828,VALID,59.796,VALID,17.937,VALID,69.0,VALID,0.0,
2018-08-10, 07:19:06,VALID,919.59,VALID,0.0,VALID,95.595,VALID,61.471,VALID,17.873,VALID,72.0,VALID,0.0,
2018-08-10, 07:20:06,VALID,919.61,VALID,0.0,VALID,95.703,VALID,63.168,VALID,17.895,VALID,88.0,VALID,0.0,
2018-08-10, 07:21:06,VALID,919.632,VALID,0.0,VALID,95.202,VALID,64.849,VALID,17.961,VALID,81.0,VALID,0.0,
2018-08-10, 07:22:06,VALID,919.627,VALID,0.0,VALID,94.968,VALID,66.495,VALID,17.993,VALID,65.0,VALID,0.0,
2018-08-10, 07:23:06,VALID,919.64,VALID,0.0,VALID,95.064,VALID,68.132,VALID,17.979,VALID,63.0,VALID,0.0,
2018-08-10, 07:24:06,VALID,919.648,VALID,0.0,VALID,95.309,VALID,69.834,VALID,17.956,VALID,63.0,VALID,0.0,
2018-08-10, 07:25:06,VALID,919.643,VALID,0.0,VALID,95.558,VALID,71.62,VALID,17.939,VALID,66.0,VALID,0.0,
2018-08-10, 07:26:06,VALID,919.635,VALID,0.0,VALID,95.704,VALID,73.542,VALID,17.92,VALID,79.0,VALID,0.0,
2018-08-10, 07:27:06,VALID,919.626,VALID,0.0,VALID,95.928,VALID,75.617,VALID,17.916,VALID,72.0,VALID,0.0,
2018-08-10, 07:28:06,VALID,919.641,VALID,0.0,VALID,96.0,VALID,77.861,VALID,17.897,VALID,80.0,VALID,0.0,
2018-08-10, 07:29:06,VALID,919.646,VALID,0.0,VALID,96.117,VALID,80.206,VALID,17.886,VALID,82.0,VALID,0.0,
2018-08-10, 07:30:06,VALID,919.672,VALID,0.0,VALID,96.249,VALID,82.592,VALID,17.913,VALID,86.0,VALID,0.0,
2018-08-10, 07:31:06,VALID,919.691,VALID,0.0,VALID,96.394,VALID,84.889,VALID,17.964,VALID,96.0,VALID,0.0,
2018-08-10, 07:32:06,VALID,919.705,VALID,0.0,VALID,96.438,VALID,87.046,VALID,17.996,VALID,94.0,VALID,0.0,
2018-08-10, 07:33:06,VALID,919.7,VALID,0.0,VALID,96.511,VALID,88.955,VALID,18.018,VALID,104.0,VALID,0.0,
2018-08-10, 07:34:06,VALID,919.704,VALID,0.0,VALID,96.433,VALID,90.44,VALID,18.029,VALID,100.0,VALID,0.0,
2018-08-10, 07:35:06,VALID,919.708,VALID,0.0,VALID,96.428,VALID,91.458,VALID,18.055,VALID,96.0,VALID,0.0,
2018-08-10, 07:36:06,VALID,919.722,VALID,0.0,VALID,96.426,VALID,92.015,VALID,18.076,VALID,100.0,VALID,0.0,
2018-08-10, 07:37:06,VALID,919.737,VALID,0.0,VALID,96.305,VALID,92.445,VALID,18.1,VALID,103.0,VALID,0.0,
2018-08-10, 07:38:06,VALID,919.758,VALID,0.0,VALID,96.326,VALID,92.908,VALID,18.14,VALID,107.0,VALID,0.0,
2018-08-10, 07:39:06,VALID,919.774,VALID,0.0,VALID,96.139,VALID,93.653,VALID,18.163,VALID,108.0,VALID,0.0,
2018-08-10, 07:40:06,VALID,919.786,VALID,0.0,VALID,95.738,VALID,94.771,VALID,18.18,VALID,114.0,VALID,0.0,
2018-08-10, 07:41:06,VALID,919.776,VALID,0.0,VALID,95.378,VALID,96.342,VALID,18.178,VALID,105.0,VALID,0.0,
2018-08-10, 07:42:06,VALID,919.769,VALID,0.0,VALID,95.192,VALID,98.328,VALID,18.164,VALID,107.0,VALID,0.0,
2018-08-10, 07:43:06,VALID,919.766,VALID,0.0,VALID,94.809,VALID,100.56,VALID,18.172,VALID,116.0,VALID,0.0,
2018-08-10, 07:44:06,VALID,919.777,VALID,0.0,VALID,94.321,VALID,102.973,VALID,18.221,VALID,120.0,VALID,0.0,
2018-08-10, 07:45:06,VALID,919.773,VALID,0.0,VALID,94.41,VALID,105.654,VALID,18.263,VALID,117.0,VALID,0.0,
2018-08-10, 07:46:06,VALID,919.761,VALID,0.0,VALID,93.682,VALID,108.484,VALID,18.336,VALID,115.0,VALID,0.0,
2018-08-10, 07:47:06,VALID,919.749,VALID,0.0,VALID,93.334,VALID,111.297,VALID,18.425,VALID,114.0,VALID,0.0,
2018-08-10, 07:48:06,VALID,919.723,VALID,0.0,VALID,93.012,VALID,114.132,VALID,18.479,VALID,118.0,VALID,0.0,
2018-08-10, 07:49:06,VALID,919.706,VALID,0.0,VALID,92.88,VALID,116.923,VALID,18.516,VALID,114.0,VALID,0.0,
2018-08-10, 07:50:06,VALID,919.689,VALID,0.0,VALID,93.119,VALID,119.81,VALID,18.55,VALID,114.0,VALID,0.0,
2018-08-10, 07:51:06,VALID,919.681,VALID,0.0,VALID,93.315,VALID,122.965,VALID,18.568,VALID,116.0,VALID,0.0,
2018-08-10, 07:52:06,VALID,919.675,VALID,0.0,VALID,93.11,VALID,126.28,VALID,18.589,VALID,120.0,VALID,0.0,
2018-08-10, 07:53:06,VALID,919.68,VALID,0.0,VALID,93.124,VALID,130.18,VALID,18.613,VALID,122.0,VALID,0.0,
2018-08-10, 07:54:06,VALID,919.677,VALID,0.0,VALID,92.876,VALID,134.873,VALID,18.652,VALID,126.0,VALID,0.0,
2018-08-10, 07:55:06,VALID,919.673,VALID,0.0,VALID,92.442,VALID,140.285,VALID,18.677,VALID,126.0,VALID,0.0,
2018-08-10, 07:56:06,VALID,919.664,VALID,0.0,VALID,92.264,VALID,146.535,VALID,18.699,VALID,126.0,VALID,0.0,
2018-08-10, 07:57:06,VALID,919.65,VALID,0.0,VALID,92.224,VALID,151.653,VALID,18.673,VALID,123.0,VALID,0.0,
2018-08-10, 07:58:06,VALID,919.656,VALID,0.0,VALID,92.955,VALID,157.489,VALID,18.637,VALID,117.0,VALID,0.0,
2018-08-10, 07:59:06,VALID,919.668,VALID,0.0,VALID,93.426,VALID,164.308,VALID,18.636,VALID,113.0,VALID,0.0,
2018-08-10, 08:00:06,VALID,919.693,VALID,0.0,VALID,93.808,VALID,171.447,VALID,18.701,VALID,110.0,VALID,0.0,
2018-08-10, 08:01:06,VALID,919.714,VALID,0.0,VALID,93.759,VALID,178.123,VALID,18.798,VALID,111.0,VALID,0.0,
2018-08-10, 08:02:06,VALID,919.757,VALID,0.0,VALID,93.547,VALID,185.841,VALID,18.861,VALID,121.0,VALID,0.0,
2018-08-10, 08:03:06,VALID,919.789,VALID,0.0,VALID,92.731,VALID,197.016,VALID,18.857,VALID,121.0,VALID,0.0,
2018-08-10, 08:04:06,VALID,919.812,VALID,0.0,VALID,92.941,VALID,205.697,VALID,18.902,VALID,117.0,VALID,0.0,
2018-08-10, 08:05:06,VALID,919.857,VALID,0.0,VALID,93.451,VALID,212.043,VALID,18.98,VALID,115.0,VALID,0.0,
2018-08-10, 08:06:06,VALID,919.879,VALID,0.0,VALID,92.204,VALID,221.325,VALID,19.057,VALID,113.0,VALID,0.0,
2018-08-10, 08:07:06,VALID,919.909,VALID,0.0,VALID,92.063,VALID,230.8,VALID,19.176,VALID,109.0,VALID,0.0,
2018-08-10, 08:08:06,VALID,919.925,VALID,0.0,VALID,91.755,VALID,244.66,VALID,19.286,VALID,109.0,VALID,0.0,
2018-08-10, 08:09:06,VALID,919.929,VALID,0.0,VALID,91.603,VALID,242.493,VALID,19.374,VALID,113.0,VALID,0.0,
2018-08-10, 08:10:06,VALID,919.92,VALID,0.0,VALID,90.495,VALID,253.245,VALID,19.379,VALID,118.0,VALID,0.0,
2018-08-10, 08:11:06,VALID,919.905,VALID,0.0,VALID,90.945,VALID,266.135,VALID,19.4,VALID,114.0,VALID,0.0,
2018-08-10, 08:12:06,VALID,919.893,VALID,0.0,VALID,91.268,VALID,283.264,VALID,19.479,VALID,105.0,VALID,0.0,
2018-08-10, 08:13:06,VALID,919.898,VALID,0.0,VALID,92.058,VALID,297.588,VALID,19.613,VALID,103.0,VALID,0.0,
2018-08-10, 08:14:06,VALID,919.905,VALID,0.0,VALID,91.608,VALID,313.029,VALID,19.774,VALID,86.0,VALID,0.0,
2018-08-10, 08:15:06,VALID,919.923,VALID,0.0,VALID,91.307,VALID,368.724,VALID,19.956,VALID,76.0,VALID,0.0,
2018-08-10, 08:16:06,VALID,919.947,VALID,0.0,VALID,89.828,VALID,378.329,VALID,20.088,VALID,76.0,VALID,0.0,
2018-08-10, 08:17:06,VALID,919.962,VALID,0.0,VALID,89.334,VALID,400.884,VALID,20.226,VALID,70.0,VALID,0.0,
2018-08-10, 08:18:06,VALID,919.992,VALID,0.0,VALID,88.479,VALID,430.997,VALID,20.372,VALID,82.0,VALID,0.0,
2018-08-10, 08:19:06,VALID,920.003,VALID,0.0,VALID,86.824,VALID,416.214,VALID,20.469,VALID,90.0,VALID,0.0,
2018-08-10, 08:20:06,VALID,920.026,VALID,0.0,VALID,86.941,VALID,415.048,VALID,20.614,VALID,96.0,VALID,0.0,
2018-08-10, 08:21:06,VALID,920.052,VALID,0.0,VALID,86.3,VALID,449.686,VALID,20.753,VALID,85.0,VALID,0.0,
2018-08-10, 08:22:06,VALID,920.057,VALID,0.0,VALID,87.865,VALID,462.214,VALID,20.944,VALID,66.0,VALID,0.0,
2018-08-10, 08:23:06,VALID,920.063,VALID,0.0,VALID,87.315,VALID,439.532,VALID,21.189,VALID,77.0,VALID,0.0,
2018-08-10, 08:24:06,VALID,920.057,VALID,0.0,VALID,83.949,VALID,468.159,VALID,21.438,VALID,91.0,VALID,0.0,
2018-08-10, 08:25:06,VALID,920.052,VALID,0.0,VALID,81.171,VALID,464.109,VALID,21.613,VALID,96.0,VALID,0.0,
2018-08-10, 08:26:06,VALID,920.041,VALID,0.0,VALID,79.608,VALID,461.835,VALID,21.782,VALID,116.0,VALID,0.0,
2018-08-10, 08:27:06,VALID,920.041,VALID,0.0,VALID,81.605,VALID,470.385,VALID,22.028,VALID,88.0,VALID,0.0,
2018-08-10, 08:28:06,VALID,920.037,VALID,0.0,VALID,80.368,VALID,469.538,VALID,22.301,VALID,95.0,VALID,0.0,
2018-08-10, 08:29:06,VALID,920.028,VALID,0.0,VALID,78.456,VALID,421.072,VALID,22.56,VALID,84.0,VALID,0.0,
2018-08-10, 08:30:06,VALID,920.023,VALID,0.0,VALID,77.634,VALID,325.513,VALID,22.606,VALID,36.0,VALID,0.0,
2018-08-10, 08:31:06,VALID,920.023,VALID,0.0,VALID,77.718,VALID,339.809,VALID,22.504,VALID,36.0,VALID,0.0,
2018-08-10, 08:32:06,VALID,920.029,VALID,0.0,VALID,80.365,VALID,358.787,VALID,22.37,VALID,43.0,VALID,0.0,
2018-08-10, 08:33:06,VALID,920.039,VALID,0.0,VALID,78.655,VALID,365.575,VALID,22.324,VALID,47.0,VALID,0.0,
2018-08-10, 08:34:06,VALID,920.042,VALID,0.0,VALID,78.166,VALID,427.256,VALID,22.374,VALID,67.0,VALID,0.0,
2018-08-10, 08:35:06,VALID,920.067,VALID,0.0,VALID,78.307,VALID,469.715,VALID,22.49,VALID,66.0,VALID,0.0,
2018-08-10, 08:36:06,VALID,920.064,VALID,0.0,VALID,76.808,VALID,500.729,VALID,22.789,VALID,67.0,VALID,0.0,
2018-08-10, 08:37:06,VALID,920.069,VALID,0.0,VALID,76.193,VALID,510.893,VALID,22.952,VALID,42.0,VALID,0.0,
2018-08-10, 08:38:06,VALID,920.083,VALID,0.0,VALID,75.7,VALID,497.947,VALID,23.278,VALID,54.0,VALID,0.0,
2018-08-10, 08:39:06,VALID,920.071,VALID,0.0,VALID,73.935,VALID,486.596,VALID,23.661,VALID,81.0,VALID,0.0,
2018-08-10, 08:40:06,VALID,920.079,VALID,0.0,VALID,73.749,VALID,499.832,VALID,23.767,VALID,52.0,VALID,0.0,
2018-08-10, 08:41:06,VALID,920.098,VALID,0.0,VALID,74.294,VALID,541.301,VALID,23.75,VALID,49.0,VALID,0.0,
2018-08-10, 08:42:06,VALID,920.114,VALID,0.0,VALID,70.923,VALID,540.517,VALID,23.711,VALID,71.0,VALID,0.0,
2018-08-10, 08:43:06,VALID,920.146,VALID,0.0,VALID,72.48,VALID,537.907,VALID,23.537,VALID,84.0,VALID,0.0,
2018-08-10, 08:44:06,VALID,920.184,VALID,0.0,VALID,73.442,VALID,549.128,VALID,23.452,VALID,127.0,VALID,0.0,
2018-08-10, 08:45:06,VALID,920.203,VALID,0.0,VALID,72.223,VALID,571.656,VALID,23.325,VALID,120.0,VALID,0.0,
2018-08-10, 08:46:06,VALID,920.226,VALID,0.0,VALID,73.448,VALID,581.703,VALID,23.481,VALID,140.0,VALID,0.0,
2018-08-10, 08:47:06,VALID,920.226,VALID,0.0,VALID,69.884,VALID,579.721,VALID,23.614,VALID,203.0,VALID,0.0,
2018-08-10, 08:48:06,VALID,920.23,VALID,0.0,VALID,70.084,VALID,562.56,VALID,23.535,VALID,94.0,VALID,0.0,
2018-08-10, 08:49:06,VALID,920.249,VALID,0.0,VALID,71.494,VALID,574.24,VALID,23.834,VALID,133.0,VALID,0.0,
2018-08-10, 08:50:06,VALID,920.257,VALID,0.0,VALID,70.874,VALID,555.057,VALID,24.005,INVALID,360.0,VALID,0.0,
2018-08-10, 08:51:06,VALID,920.258,VALID,0.0,VALID,70.394,VALID,509.772,VALID,23.77,INVALID,360.0,VALID,0.0,
2018-08-10, 08:52:06,VALID,920.262,VALID,0.0,VALID,71.172,VALID,456.222,VALID,23.549,INVALID,360.0,VALID,0.0,
2018-08-10, 08:53:06,VALID,920.256,VALID,0.0,VALID,71.117,VALID,462.334,VALID,23.639,INVALID,360.0,VALID,0.0,
2018-08-10, 08:54:06,VALID,920.24,VALID,0.0,VALID,70.428,VALID,483.418,VALID,23.883,INVALID,360.0,VALID,0.0,
2018-08-10, 08:55:06,VALID,920.231,VALID,0.0,VALID,68.355,VALID,484.277,VALID,24.15,INVALID,360.0,VALID,0.0,
2018-08-10, 08:56:06,VALID,920.232,VALID,0.0,VALID,66.265,VALID,508.977,VALID,24.205,INVALID,360.0,VALID,0.0,
2018-08-10, 08:57:06,VALID,920.24,VALID,0.0,VALID,67.058,VALID,503.432,VALID,24.188,INVALID,360.0,VALID,0.0,
2018-08-10, 08:58:06,VALID,920.242,VALID,0.0,VALID,66.89,VALID,457.047,VALID,24.255,INVALID,360.0,VALID,0.0,
2018-08-10, 08:59:06,VALID,920.254,VALID,0.0,VALID,66.901,VALID,450.031,VALID,24.246,INVALID,360.0,VALID,0.0,
2018-08-10, 09:00:06,VALID,920.265,VALID,0.0,VALID,67.073,VALID,460.015,VALID,24.307,INVALID,360.0,VALID,0.0,
2018-08-10, 09:01:06,VALID,920.281,VALID,0.0,VALID,67.528,VALID,454.523,VALID,24.238,INVALID,360.0,VALID,0.0,
2018-08-10, 09:02:06,VALID,920.302,VALID,0.0,VALID,68.549,VALID,476.381,VALID,24.264,INVALID,360.0,VALID,0.0,
2018-08-10, 09:03:06,VALID,920.317,VALID,0.0,VALID,68.169,VALID,458.278,VALID,24.494,INVALID,360.0,VALID,0.0,
2018-08-10, 09:04:06,VALID,920.323,VALID,0.0,VALID,66.776,VALID,371.495,VALID,24.471,INVALID,360.0,VALID,0.0,
2018-08-10, 09:05:06,VALID,920.326,VALID,0.0,VALID,66.273,VALID,384.899,VALID,24.384,INVALID,360.0,VALID,0.0,
2018-08-10, 09:06:06,VALID,920.319,VALID,0.0,VALID,65.737,VALID,357.536,VALID,24.27,INVALID,360.0,VALID,0.0,
2018-08-10, 09:07:06,VALID,920.302,VALID,0.0,VALID,63.734,VALID,272.664,VALID,24.161,INVALID,360.0,VALID,0.0,
2018-08-10, 09:08:06,VALID,920.307,VALID,0.0,VALID,63.661,VALID,234.574,VALID,23.983,INVALID,360.0,VALID,0.0,
2018-08-10, 09:09:06,VALID,920.292,VALID,0.0,VALID,64.617,VALID,223.663,VALID,23.876,INVALID,360.0,VALID,0.0,
2018-08-10, 09:10:06,VALID,920.289,VALID,0.0,VALID,65.535,VALID,240.349,VALID,23.647,INVALID,360.0,VALID,0.0,
2018-08-10, 09:11:06,VALID,920.281,VALID,0.0,VALID,66.113,VALID,254.387,VALID,23.563,INVALID,360.0,VALID,0.0,
2018-08-10, 09:12:06,VALID,920.29,VALID,0.0,VALID,67.902,VALID,249.565,VALID,23.616,INVALID,360.0,VALID,0.0,
2018-08-10, 09:13:06,VALID,920.302,VALID,0.0,VALID,66.99,VALID,254.852,VALID,23.663,INVALID,360.0,VALID,0.0,
2018-08-10, 09:14:06,VALID,920.314,VALID,0.0,VALID,67.905,VALID,258.539,VALID,23.582,INVALID,360.0,VALID,0.0,
2018-08-10, 09:15:06,VALID,920.329,VALID,0.0,VALID,65.518,VALID,253.391,VALID,23.359,INVALID,360.0,VALID,0.0,
2018-08-10, 09:16:06,VALID,920.345,VALID,0.0,VALID,66.506,VALID,251.33,VALID,23.245,INVALID,360.0,VALID,0.0,
2018-08-10, 09:17:06,VALID,920.347,VALID,0.0,VALID,68.484,VALID,254.219,VALID,23.327,INVALID,360.0,VALID,0.0,
2018-08-10, 09:18:06,VALID,920.356,VALID,0.0,VALID,70.714,VALID,255.777,VALID,23.397,INVALID,360.0,VALID,0.0,
2018-08-10, 09:19:06,VALID,920.337,VALID,0.0,VALID,70.293,VALID,253.329,VALID,23.5,INVALID,360.0,VALID,0.0,
2018-08-10, 09:20:06,VALID,920.318,VALID,0.0,VALID,66.361,VALID,253.117,VALID,23.594,INVALID,360.0,VALID,0.0,
2018-08-10, 09:21:06,VALID,920.309,VALID,0.0,VALID,65.236,VALID,254.721,VALID,23.567,INVALID,360.0,VALID,0.0,
2018-08-10, 09:22:06,VALID,920.282,VALID,0.0,VALID,65.561,VALID,258.76,VALID,23.534,INVALID,360.0,VALID,0.0,
2018-08-10, 09:23:06,VALID,920.278,VALID,0.0,VALID,66.326,VALID,269.123,VALID,23.555,INVALID,360.0,VALID,0.0,
2018-08-10, 09:24:06,VALID,920.276,VALID,0.0,VALID,66.044,VALID,292.035,VALID,23.463,INVALID,360.0,VALID,0.0,
2018-08-10, 09:25:06,VALID,920.263,VALID,0.0,VALID,67.56,VALID,286.78,VALID,23.34,INVALID,360.0,VALID,0.0,
2018-08-10, 09:26:06,VALID,920.242,VALID,0.0,VALID,68.173,VALID,275.14,VALID,23.356,INVALID,360.0,VALID,0.0,
2018-08-10, 09:27:06,VALID,920.217,VALID,0.0,VALID,67.114,VALID,278.886,VALID,23.389,INVALID,360.0,VALID,0.0,
2018-08-10, 09:28:06,VALID,920.207,VALID,0.0,VALID,72.404,VALID,283.293,VALID,23.406,INVALID,360.0,VALID,0.0,
2018-08-10, 09:29:06,VALID,920.193,VALID,0.0,VALID,73.851,VALID,286.637,VALID,23.394,INVALID,360.0,VALID,0.0,
2018-08-10, 09:30:06,VALID,920.197,VALID,0.0,VALID,73.213,VALID,293.086,VALID,23.285,INVALID,360.0,VALID,0.0,
2018-08-10, 09:31:06,VALID,920.185,VALID,0.0,VALID,75.556,VALID,301.978,VALID,23.116,INVALID,360.0,VALID,0.0,
2018-08-10, 09:32:06,VALID,920.189,VALID,0.0,VALID,76.204,VALID,306.077,VALID,22.958,INVALID,360.0,VALID,0.0,
2018-08-10, 09:33:06,VALID,920.179,VALID,0.0,VALID,77.259,VALID,319.082,VALID,22.91,INVALID,360.0,VALID,0.0,
2018-08-10, 09:34:06,VALID,920.166,VALID,0.0,VALID,77.183,VALID,322.48,VALID,22.949,INVALID,360.0,VALID,0.0,
2018-08-10, 09:35:06,VALID,920.145,VALID,0.0,VALID,77.714,VALID,315.346,VALID,22.78,INVALID,360.0,VALID,0.0,
2018-08-10, 09:36:06,VALID,920.136,VALID,0.0,VALID,77.206,VALID,319.135,VALID,22.636,INVALID,360.0,VALID,0.0,
2018-08-10, 09:37:06,VALID,920.139,VALID,0.0,VALID,77.231,VALID,331.272,VALID,22.617,INVALID,360.0,VALID,0.0,
2018-08-10, 09:38:06,VALID,920.145,VALID,0.0,VALID,76.135,VALID,357.122,VALID,22.662,INVALID,360.0,VALID,0.0,
2018-08-10, 09:39:06,VALID,920.131,VALID,0.0,VALID,76.949,VALID,372.811,VALID,22.766,INVALID,360.0,VALID,0.0,
2018-08-10, 09:40:06,VALID,920.144,VALID,0.0,VALID,77.03,VALID,369.625,VALID,22.893,INVALID,360.0,VALID,0.0,
2018-08-10, 09:41:06,VALID,920.133,VALID,0.0,VALID,76.646,VALID,350.094,VALID,23.082,INVALID,360.0,VALID,0.0,
2018-08-10, 09:42:06,VALID,920.137,VALID,0.0,VALID,76.875,VALID,346.336,VALID,23.193,INVALID,360.0,VALID,0.0,
2018-08-10, 09:43:06,VALID,920.143,VALID,0.0,VALID,76.199,VALID,350.026,VALID,23.303,INVALID,360.0,VALID,0.0,
2018-08-10, 09:44:06,VALID,920.15,VALID,0.0,VALID,74.78,VALID,349.68,VALID,23.38,INVALID,360.0,VALID,0.0,
2018-08-10, 09:45:06,VALID,920.141,VALID,0.0,VALID,73.76,VALID,347.378,VALID,23.315,INVALID,360.0,VALID,0.0,
2018-08-10, 09:46:06,VALID,920.139,VALID,0.0,VALID,73.658,VALID,346.943,VALID,23.241,INVALID,360.0,VALID,0.0,
2018-08-10, 09:47:06,VALID,920.102,VALID,0.0,VALID,74.197,VALID,346.396,VALID,23.247,INVALID,360.0,VALID,0.0,
2018-08-10, 09:48:06,VALID,920.081,VALID,0.0,VALID,72.718,VALID,348.438,VALID,23.266,INVALID,360.0,VALID,0.0,
2018-08-10, 09:49:06,VALID,920.072,VALID,0.0,VALID,72.471,VALID,361.468,VALID,23.275,INVALID,360.0,VALID,0.0,
2018-08-10, 09:50:06,VALID,920.05,VALID,0.0,VALID,73.429,VALID,403.813,VALID,23.256,INVALID,360.0,VALID,0.0,
2018-08-10, 09:51:06,VALID,920.051,VALID,0.0,VALID,72.599,VALID,420.112,VALID,23.305,INVALID,360.0,VALID,0.0,
2018-08-10, 09:52:06,VALID,920.038,VALID,0.0,VALID,72.3,VALID,416.932,VALID,23.34,INVALID,360.0,VALID,0.0,
2018-08-10, 09:53:06,VALID,920.054,VALID,0.0,VALID,71.916,VALID,421.04,VALID,23.316,INVALID,360.0,VALID,0.0,
2018-08-10, 09:54:06,VALID,920.067,VALID,0.0,VALID,73.661,VALID,436.698,VALID,23.364,INVALID,360.0,VALID,0.0,
2018-08-10, 09:55:06,VALID,920.073,VALID,0.0,VALID,71.191,VALID,441.67,VALID,23.514,INVALID,360.0,VALID,0.0,
2018-08-10, 09:56:06,VALID,920.063,VALID,0.0,VALID,70.365,VALID,455.5,VALID,23.624,INVALID,360.0,VALID,0.0,
2018-08-10, 09:57:06,VALID,920.052,VALID,0.0,VALID,68.532,VALID,461.953,VALID,23.765,INVALID,360.0,VALID,0.0,
2018-08-10, 09:58:06,VALID,920.027,VALID,0.0,VALID,67.098,VALID,444.038,VALID,23.935,INVALID,360.0,VALID,0.0,
2018-08-10, 09:59:06,VALID,920.014,VALID,0.0,VALID,66.065,VALID,442.881,VALID,24.089,INVALID,360.0,VALID,0.0,
2018-08-10, 10:00:06,VALID,920.002,VALID,0.0,VALID,65.02,VALID,464.709,VALID,23.983,INVALID,360.0,VALID,0.0,
2018-08-10, 10:01:06,VALID,919.995,VALID,0.0,VALID,65.702,VALID,497.172,VALID,23.933,INVALID,360.0,VALID,0.0,
2018-08-10, 10:02:06,VALID,919.995,VALID,0.0,VALID,65.979,VALID,559.963,VALID,24.1,INVALID,360.0,VALID,0.0,
2018-08-10, 10:03:06,VALID,920.008,VALID,0.0,VALID,64.362,VALID,569.258,VALID,24.217,INVALID,360.0,VALID,0.0,
2018-08-10, 10:04:06,VALID,920.01,VALID,0.0,VALID,64.426,VALID,542.012,VALID,24.238,INVALID,360.0,VALID,0.0,
2018-08-10, 10:05:06,VALID,920.005,VALID,0.0,VALID,65.801,VALID,532.305,VALID,24.34,INVALID,360.0,VALID,0.0,
2018-08-10, 10:06:06,VALID,919.999,VALID,0.0,VALID,64.416,VALID,521.582,VALID,24.508,INVALID,360.0,VALID,0.0,
2018-08-10, 10:07:06,VALID,919.982,VALID,0.0,VALID,64.182,VALID,608.891,VALID,24.558,INVALID,360.0,VALID,0.0,
2018-08-10, 10:08:06,VALID,919.968,VALID,0.0,VALID,63.919,VALID,657.48,VALID,24.561,INVALID,360.0,VALID,0.0,
2018-08-10, 10:09:06,VALID,919.955,VALID,0.0,VALID,63.704,VALID,659.967,VALID,24.41,INVALID,360.0,VALID,0.0,
2018-08-10, 10:10:06,VALID,919.945,VALID,0.0,VALID,63.313,VALID,607.929,VALID,24.193,INVALID,360.0,VALID,0.0,
2018-08-10, 10:11:06,VALID,919.93,VALID,0.0,VALID,63.211,VALID,619.126,VALID,23.989,INVALID,360.0,VALID,0.0,
2018-08-10, 10:12:06,VALID,919.925,VALID,0.0,VALID,64.266,VALID,733.686,VALID,23.868,INVALID,360.0,VALID,0.0,
2018-08-10, 10:13:06,VALID,919.931,VALID,0.0,VALID,65.225,VALID,719.484,VALID,23.985,INVALID,360.0,VALID,0.0,
2018-08-10, 10:14:06,VALID,919.936,VALID,0.0,VALID,67.56,VALID,676.515,VALID,24.214,INVALID,360.0,VALID,0.0,
2018-08-10, 10:15:06,VALID,919.956,VALID,0.0,VALID,67.004,VALID,688.589,VALID,24.338,INVALID,360.0,VALID,0.0,
2018-08-10, 10:16:06,VALID,919.967,VALID,0.0,VALID,66.268,VALID,697.678,VALID,24.405,INVALID,360.0,VALID,0.0,
2018-08-10, 10:17:06,VALID,919.977,VALID,0.0,VALID,65.94,VALID,684.359,VALID,24.232,INVALID,360.0,VALID,0.0,
2018-08-10, 10:18:06,VALID,919.983,VALID,0.0,VALID,64.375,VALID,719.529,VALID,24.144,INVALID,360.0,VALID,0.0,
2018-08-10, 10:19:06,VALID,919.971,VALID,0.0,VALID,61.809,VALID,714.527,VALID,24.198,INVALID,360.0,VALID,0.0,
2018-08-10, 10:20:06,VALID,919.964,VALID,0.0,VALID,62.129,VALID,747.837,VALID,24.361,INVALID,360.0,VALID,0.0,
2018-08-10, 10:21:06,VALID,919.96,VALID,0.0,VALID,63.455,VALID,796.817,VALID,24.659,INVALID,360.0,VALID,0.0,
2018-08-10, 10:22:06,VALID,919.949,VALID,0.0,VALID,62.912,VALID,777.816,VALID,24.68,INVALID,360.0,VALID,0.0,
2018-08-10, 10:23:06,VALID,919.937,VALID,0.0,VALID,65.567,VALID,806.722,VALID,24.566,INVALID,360.0,VALID,0.0,
2018-08-10, 10:24:06,VALID,919.909,VALID,0.0,VALID,64.006,VALID,828.613,VALID,24.423,INVALID,360.0,VALID,0.0,
2018-08-10, 10:25:06,VALID,919.883,VALID,0.0,VALID,65.712,VALID,867.853,VALID,24.493,INVALID,360.0,VALID,0.0,
2018-08-10, 10:26:06,VALID,919.87,VALID,0.0,VALID,65.152,VALID,876.254,VALID,24.726,INVALID,360.0,VALID,0.0,
2018-08-10, 10:27:06,VALID,919.863,VALID,0.0,VALID,63.539,VALID,860.954,VALID,24.721,INVALID,360.0,VALID,0.0,
2018-08-10, 10:28:06,VALID,919.851,VALID,0.0,VALID,63.45,VALID,835.341,VALID,24.584,INVALID,360.0,VALID,0.0,
2018-08-10, 10:29:06,VALID,919.828,VALID,0.0,VALID,64.144,VALID,816.106,VALID,24.591,INVALID,360.0,VALID,0.0,
2018-08-10, 10:30:06,VALID,919.83,VALID,0.0,VALID,64.314,VALID,835.64,VALID,24.691,INVALID,360.0,VALID,0.0,
2018-08-10, 10:31:06,VALID,919.826,VALID,0.0,VALID,66.357,VALID,810.795,VALID,24.962,VALID,357.0,VALID,0.0,
2018-08-10, 10:32:06,VALID,919.818,VALID,0.0,VALID,64.976,VALID,742.949,VALID,25.209,VALID,338.0,VALID,0.0,
2018-08-10, 10:33:06,VALID,919.81,VALID,0.0,VALID,64.233,VALID,638.7,VALID,25.226,VALID,1.0,VALID,0.0,
2018-08-10, 10:34:06,VALID,919.786,VALID,0.0,VALID,63.184,VALID,459.652,VALID,25.115,VALID,71.0,VALID,0.0,
2018-08-10, 10:35:06,VALID,919.765,VALID,0.0,VALID,62.308,VALID,520.781,VALID,25.081,VALID,208.0,VALID,0.0,
2018-08-10, 10:36:06,VALID,919.753,VALID,0.0,VALID,63.714,VALID,661.439,VALID,24.873,VALID,275.0,VALID,0.0,
2018-08-10, 10:37:06,VALID,919.763,VALID,0.0,VALID,63.472,VALID,716.921,VALID,24.625,VALID,290.0,VALID,0.0,
2018-08-10, 10:38:06,VALID,919.748,VALID,0.0,VALID,64.006,VALID,768.727,VALID,24.646,VALID,332.0,VALID,0.0,